Time,TemperatureF,DewpointF,PressureIn,WindDirection,WindDirectionDegrees,WindSpeedMPH,WindSpeedGustMPH,Humidity,HourlyPrecipIn,Conditions,Clouds,dailyrainin,SoftwareType,DateUTC
2013-02-19 00:02:00,34.0,23.0,30.04,WSW,254,2.0,8.0,63,0.00,,,0.00,,2013-02-19 05:02:00,
2013-02-19 00:12:00,34.0,23.0,30.04,WSW,254,2.0,8.0,63,0.00,,,0.00,,2013-02-19 05:12:00,
2013-02-19 00:22:00,34.0,22.0,30.03,WSW,250,4.0,12.0,62,0.00,,,0.00,,2013-02-19 05:22:00,
2013-02-19 00:32:00,34.0,22.0,30.04,SW,236,7.0,21.0,62,0.00,,,0.00,,2013-02-19 05:32:00,
2013-02-19 00:43:00,34.0,22.0,30.04,SW,236,7.0,21.0,62,0.00,,,0.00,,2013-02-19 05:43:00,
2013-02-19 00:52:00,34.0,22.0,30.03,WSW,243,8.0,19.0,62,0.00,,,0.00,,2013-02-19 05:52:00,
2013-02-19 01:02:00,34.0,22.0,30.03,WSW,255,7.0,19.0,62,0.00,,,0.00,,2013-02-19 06:02:00,
2013-02-19 01:12:00,34.0,22.0,30.03,WSW,255,7.0,19.0,62,0.00,,,0.00,,2013-02-19 06:12:00,
2013-02-19 01:22:00,34.0,22.0,30.02,WSW,256,6.0,17.0,62,0.00,,,0.00,,2013-02-19 06:22:00,
2013-02-19 01:32:00,34.0,22.0,30.01,WSW,240,6.0,18.0,61,0.00,,,0.00,,2013-02-19 06:32:00,
2013-02-19 01:42:00,34.0,22.0,30.01,WSW,240,6.0,18.0,61,0.00,,,0.00,,2013-02-19 06:42:00,
2013-02-19 01:53:00,34.0,22.0,30.01,SW,223,8.0,20.0,61,0.00,,,0.00,,2013-02-19 06:53:00,
2013-02-19 02:01:00,34.0,22.0,30.00,SW,236,4.0,15.0,60,0.00,,,0.00,,2013-02-19 07:01:00,
2013-02-19 02:11:00,34.0,22.0,30.00,SW,236,4.0,15.0,60,0.00,,,0.00,,2013-02-19 07:11:00,
2013-02-19 02:22:00,34.0,22.0,29.99,West,259,4.0,15.0,61,0.00,,,0.00,,2013-02-19 07:22:00,
2013-02-19 02:32:00,33.0,21.0,29.99,SW,217,6.0,15.0,61,0.00,,,0.00,,2013-02-19 07:32:00,
2013-02-19 02:42:00,33.0,21.0,29.99,SW,217,6.0,15.0,61,0.00,,,0.00,,2013-02-19 07:42:00,
2013-02-19 02:52:00,33.0,21.0,29.98,WSW,249,7.0,17.0,61,0.00,,,0.00,,2013-02-19 07:52:00,
2013-02-19 03:02:00,34.0,22.0,29.96,SW,215,6.0,22.0,60,0.00,,,0.00,,2013-02-19 08:02:00,
2013-02-19 03:11:00,34.0,22.0,29.96,SW,215,6.0,22.0,60,0.00,,,0.00,,2013-02-19 08:11:00,
2013-02-19 03:22:00,34.0,22.0,29.95,WSW,247,4.0,18.0,60,0.00,,,0.00,,2013-02-19 08:22:00,
2013-02-19 03:32:00,34.0,21.0,29.94,SW,236,8.0,19.0,59,0.00,,,0.00,,2013-02-19 08:32:00,
2013-02-19 03:42:00,34.0,21.0,29.94,SW,236,8.0,19.0,59,0.00,,,0.00,,2013-02-19 08:42:00,
2013-02-19 03:52:00,34.0,21.0,29.94,SW,216,6.0,17.0,58,0.00,,,0.00,,2013-02-19 08:52:00,
2013-02-19 04:02:00,34.0,21.0,29.95,WSW,246,6.0,18.0,58,0.00,,,0.00,,2013-02-19 09:02:00,
2013-02-19 04:11:00,34.0,21.0,29.95,WSW,246,6.0,18.0,58,0.00,,,0.00,,2013-02-19 09:11:00,
2013-02-19 04:22:00,34.0,21.0,29.93,SW,233,8.0,19.0,58,0.00,,,0.00,,2013-02-19 09:22:00,
2013-02-19 04:32:00,34.0,21.0,29.93,SSW,198,7.0,24.0,58,0.00,,,0.00,,2013-02-19 09:32:00,
2013-02-19 04:42:00,34.0,21.0,29.93,SSW,198,7.0,24.0,58,0.00,,,0.00,,2013-02-19 09:42:00,
2013-02-19 04:53:00,34.0,20.0,29.94,WSW,244,10.0,27.0,57,0.00,,,0.00,,2013-02-19 09:53:00,
2013-02-19 05:02:00,35.0,21.0,29.92,WSW,252,9.0,31.0,56,0.00,,,0.00,,2013-02-19 10:02:00,
2013-02-19 05:11:00,35.0,21.0,29.92,WSW,252,9.0,31.0,56,0.00,,,0.00,,2013-02-19 10:11:00,
2013-02-19 05:22:00,35.0,20.0,29.93,WSW,257,8.0,29.0,55,0.00,,,0.00,,2013-02-19 10:22:00,
2013-02-19 05:32:00,35.0,20.0,29.93,SW,227,10.0,28.0,55,0.00,,,0.00,,2013-02-19 10:32:00,
2013-02-19 05:42:00,35.0,20.0,29.93,SW,227,10.0,28.0,55,0.00,,,0.00,,2013-02-19 10:42:00,
2013-02-19 05:52:00,35.0,20.0,29.93,SW,215,10.0,20.0,55,0.00,,,0.00,,2013-02-19 10:52:00,
2013-02-19 06:01:00,35.0,20.0,29.93,SW,232,9.0,24.0,55,0.00,,,0.00,,2013-02-19 11:01:00,
2013-02-19 06:11:00,35.0,20.0,29.93,SW,232,9.0,24.0,55,0.00,,,0.00,,2013-02-19 11:11:00,
2013-02-19 06:22:00,35.0,20.0,29.93,WSW,248,8.0,18.0,54,0.00,,,0.00,,2013-02-19 11:22:00,
2013-02-19 06:32:00,34.0,20.0,29.92,WSW,249,7.0,22.0,56,0.00,,,0.00,,2013-02-19 11:32:00,
2013-02-19 06:42:00,34.0,20.0,29.92,WSW,249,7.0,22.0,56,0.00,,,0.00,,2013-02-19 11:42:00,
2013-02-19 06:52:00,34.0,20.0,29.92,SW,236,9.0,18.0,56,0.00,,,0.00,,2013-02-19 11:52:00,
2013-02-19 07:02:00,33.0,24.0,29.93,West,261,12.0,41.0,68,0.00,,,0.00,,2013-02-19 12:02:00,
2013-02-19 07:12:00,33.0,24.0,29.93,West,261,12.0,41.0,68,0.00,,,0.00,,2013-02-19 12:12:00,
2013-02-19 07:22:00,32.0,25.0,29.91,SW,229,9.0,19.0,74,0.00,,,0.00,,2013-02-19 12:22:00,
2013-02-19 07:32:00,32.0,27.0,29.91,SW,232,10.0,27.0,80,0.00,,,0.00,,2013-02-19 12:32:00,
2013-02-19 07:42:00,32.0,27.0,29.91,SW,232,10.0,27.0,80,0.00,,,0.00,,2013-02-19 12:42:00,
2013-02-19 07:52:00,31.0,28.0,29.91,WSW,253,10.0,25.0,90,0.00,,,0.00,,2013-02-19 12:52:00,
2013-02-19 08:02:00,31.0,29.0,29.90,WSW,248,11.0,30.0,93,0.00,,,0.00,,2013-02-19 13:02:00,
2013-02-19 08:11:00,31.0,29.0,29.90,WSW,248,11.0,30.0,93,0.00,,,0.00,,2013-02-19 13:11:00,
2013-02-19 08:22:00,31.0,29.0,29.91,WSW,237,9.0,21.0,94,0.00,,,0.00,,2013-02-19 13:22:00,
2013-02-19 08:32:00,32.0,31.0,29.90,West,262,8.0,24.0,95,0.00,,,0.00,,2013-02-19 13:32:00,
2013-02-19 08:42:00,32.0,31.0,29.90,West,262,8.0,24.0,95,0.00,,,0.00,,2013-02-19 13:42:00,
2013-02-19 08:52:00,32.0,31.0,29.88,WSW,240,8.0,25.0,95,0.00,,,0.00,,2013-02-19 13:52:00,
2013-02-19 09:01:00,32.0,31.0,29.88,WSW,256,7.0,15.0,95,0.00,,,0.00,,2013-02-19 14:01:00,
2013-02-19 09:12:00,32.0,31.0,29.88,WSW,256,7.0,15.0,95,0.00,,,0.00,,2013-02-19 14:12:00,
2013-02-19 09:22:00,33.0,32.0,29.87,SW,229,9.0,29.0,96,0.00,,,0.00,,2013-02-19 14:22:00,
2013-02-19 09:33:00,34.0,33.0,29.87,WSW,242,9.0,31.0,96,0.00,,,0.00,,2013-02-19 14:33:00,
2013-02-19 09:42:00,34.0,33.0,29.87,WSW,242,9.0,31.0,96,0.00,,,0.00,,2013-02-19 14:42:00,
2013-02-19 09:52:00,34.0,33.0,29.85,West,260,6.0,24.0,95,0.00,,,0.00,,2013-02-19 14:52:00,
2013-02-19 10:02:00,34.0,33.0,29.85,WSW,247,8.0,16.0,95,0.00,,,0.00,,2013-02-19 15:02:00,
2013-02-19 10:11:00,34.0,33.0,29.85,WSW,247,8.0,16.0,95,0.00,,,0.00,,2013-02-19 15:11:00,
2013-02-19 10:21:00,35.0,34.0,29.85,SW,236,7.0,18.0,95,0.00,,,0.00,,2013-02-19 15:21:00,
2013-02-19 10:32:00,35.0,34.0,29.85,WSW,240,7.0,21.0,95,0.01,,,0.01,,2013-02-19 15:32:00,
2013-02-19 10:42:00,35.0,34.0,29.85,WSW,240,7.0,21.0,95,0.01,,,0.01,,2013-02-19 15:42:00,
2013-02-19 10:52:00,36.0,34.0,29.85,WSW,246,4.0,22.0,93,0.01,,,0.01,,2013-02-19 15:52:00,
2013-02-19 11:02:00,36.0,34.0,29.85,SSW,195,6.0,16.0,93,0.01,,,0.01,,2013-02-19 16:02:00,
2013-02-19 11:11:00,36.0,34.0,29.85,SSW,195,6.0,16.0,93,0.01,,,0.01,,2013-02-19 16:11:00,
2013-02-19 11:22:00,36.0,34.0,29.84,SSW,201,6.0,18.0,92,0.01,,,0.01,,2013-02-19 16:22:00,
2013-02-19 11:32:00,36.0,34.0,29.84,WSW,246,8.0,20.0,91,0.00,,,0.01,,2013-02-19 16:32:00,
2013-02-19 11:42:00,36.0,34.0,29.84,WSW,246,8.0,20.0,91,0.00,,,0.01,,2013-02-19 16:42:00,
2013-02-19 11:52:00,36.0,34.0,29.83,SW,230,6.0,20.0,91,0.00,,,0.01,,2013-02-19 16:52:00,
2013-02-19 12:01:00,36.0,34.0,29.81,SW,232,5.0,27.0,91,0.00,,,0.01,,2013-02-19 17:01:00,
2013-02-19 12:11:00,36.0,34.0,29.81,SW,232,5.0,27.0,91,0.00,,,0.01,,2013-02-19 17:11:00,
2013-02-19 12:21:00,37.0,34.0,29.80,SW,228,6.0,18.0,90,0.00,,,0.01,,2013-02-19 17:21:00,
2013-02-19 12:32:00,37.0,34.0,29.80,SW,225,5.0,16.0,90,0.00,,,0.01,,2013-02-19 17:32:00,
2013-02-19 12:42:00,37.0,34.0,29.80,SW,225,5.0,16.0,90,0.00,,,0.01,,2013-02-19 17:42:00,
2013-02-19 12:52:00,38.0,34.0,29.79,West,262,4.0,17.0,87,0.00,,,0.01,,2013-02-19 17:52:00,
2013-02-19 13:01:00,38.0,34.0,29.77,West,267,5.0,13.0,87,0.00,,,0.01,,2013-02-19 18:01:00,
2013-02-19 13:11:00,38.0,34.0,29.77,West,267,5.0,13.0,87,0.00,,,0.01,,2013-02-19 18:11:00,
2013-02-19 13:21:00,38.0,34.0,29.77,WSW,237,3.0,12.0,86,0.00,,,0.01,,2013-02-19 18:21:00,
2013-02-19 13:32:00,38.0,34.0,29.77,West,263,8.0,19.0,86,0.00,,,0.01,,2013-02-19 18:32:00,
2013-02-19 13:42:00,39.0,35.0,29.76,West,261,7.0,23.0,85,0.00,,,0.01,,2013-02-19 18:42:00,
2013-02-19 13:52:00,39.0,35.0,29.76,West,261,7.0,23.0,85,0.00,,,0.01,,2013-02-19 18:52:00,
2013-02-19 14:01:00,38.0,34.0,29.75,WSW,239,4.0,17.0,86,0.00,,,0.01,,2013-02-19 19:01:00,
2013-02-19 14:11:00,38.0,34.0,29.75,WSW,239,4.0,17.0,86,0.00,,,0.01,,2013-02-19 19:11:00,
2013-02-19 14:21:00,38.0,34.0,29.75,WSW,249,11.0,27.0,85,0.00,,,0.01,,2013-02-19 19:21:00,
2013-02-19 14:32:00,39.0,34.0,29.74,West,280,7.0,28.0,82,0.00,,,0.01,,2013-02-19 19:32:00,
2013-02-19 14:42:00,39.0,34.0,29.74,West,280,7.0,28.0,82,0.00,,,0.01,,2013-02-19 19:42:00,
2013-02-19 14:52:00,39.0,32.0,29.74,SW,214,10.0,29.0,76,0.00,,,0.01,,2013-02-19 19:52:00,
2013-02-19 15:01:00,40.0,32.0,29.73,WNW,291,10.0,27.0,72,0.00,,,0.01,,2013-02-19 20:01:00,
2013-02-19 15:12:00,40.0,32.0,29.73,WNW,291,10.0,27.0,72,0.00,,,0.01,,2013-02-19 20:12:00,
2013-02-19 15:22:00,39.0,31.0,29.74,West,280,8.0,25.0,73,0.00,,,0.01,,2013-02-19 20:22:00,
2013-02-19 15:32:00,40.0,32.0,29.73,WNW,296,9.0,23.0,72,0.00,,,0.01,,2013-02-19 20:32:00,
2013-02-19 15:42:00,40.0,32.0,29.73,WNW,296,9.0,23.0,72,0.00,,,0.01,,2013-02-19 20:42:00,
2013-02-19 15:52:00,39.0,31.0,29.73,WNW,293,6.0,20.0,72,0.00,,,0.01,,2013-02-19 20:52:00,
2013-02-19 16:02:00,39.0,30.0,29.73,WSW,256,8.0,18.0,70,0.00,,,0.01,,2013-02-19 21:02:00,
2013-02-19 16:11:00,39.0,30.0,29.73,WSW,256,8.0,18.0,70,0.00,,,0.01,,2013-02-19 21:11:00,
2013-02-19 16:21:00,38.0,27.0,29.73,SW,217,7.0,28.0,65,0.00,,,0.01,,2013-02-19 21:21:00,
2013-02-19 16:32:00,40.0,31.0,29.73,West,279,4.0,19.0,70,0.00,,,0.01,,2013-02-19 21:32:00,
2013-02-19 16:42:00,40.0,31.0,29.73,West,279,4.0,19.0,70,0.00,,,0.01,,2013-02-19 21:42:00,
2013-02-19 16:52:00,40.0,28.0,29.73,WSW,244,8.0,27.0,61,0.00,,,0.01,,2013-02-19 21:52:00,
2013-02-19 17:02:00,39.0,27.0,29.75,NNW,339,5.0,18.0,61,0.00,,,0.01,,2013-02-19 22:02:00,
2013-02-19 17:11:00,39.0,27.0,29.75,NNW,339,5.0,18.0,61,0.00,,,0.01,,2013-02-19 22:11:00,
2013-02-19 17:21:00,38.0,25.0,29.74,NNW,335,8.0,24.0,58,0.00,,,0.01,,2013-02-19 22:21:00,
2013-02-19 17:32:00,38.0,22.0,29.75,WNW,301,8.0,25.0,53,0.00,,,0.01,,2013-02-19 22:32:00,
2013-02-19 17:42:00,38.0,22.0,29.75,WNW,301,8.0,25.0,53,0.00,,,0.01,,2013-02-19 22:42:00,
2013-02-19 17:52:00,38.0,22.0,29.75,WNW,283,7.0,20.0,52,0.00,,,0.01,,2013-02-19 22:52:00,
2013-02-19 18:01:00,38.0,19.0,29.76,NW,312,7.0,28.0,46,0.00,,,0.01,,2013-02-19 23:01:00,
2013-02-19 18:11:00,38.0,19.0,29.76,NW,312,7.0,28.0,46,0.00,,,0.01,,2013-02-19 23:11:00,
2013-02-19 18:21:00,38.0,18.0,29.79,WNW,285,13.0,33.0,43,0.00,,,0.01,,2013-02-19 23:21:00,
2013-02-19 18:32:00,37.0,16.0,29.79,NW,315,12.0,26.0,41,0.00,,,0.01,,2013-02-19 23:32:00,
2013-02-19 18:42:00,37.0,16.0,29.79,NW,315,12.0,26.0,41,0.00,,,0.01,,2013-02-19 23:42:00,
2013-02-19 18:52:00,37.0,16.0,29.79,NW,307,10.0,33.0,41,0.00,,,0.01,,2013-02-19 23:52:00,
2013-02-19 19:01:00,37.0,16.0,29.79,NW,307,10.0,33.0,41,0.00,,,0.01,,2013-02-20 00:01:00,
2013-02-19 19:11:00,37.0,16.0,29.79,NW,307,10.0,33.0,41,0.00,,,0.01,,2013-02-20 00:11:00,
2013-02-19 19:21:00,36.0,16.0,29.80,West,280,11.0,22.0,43,0.00,,,0.01,,2013-02-20 00:21:00,
2013-02-19 19:32:00,36.0,16.0,29.80,WNW,297,7.0,25.0,43,0.00,,,0.01,,2013-02-20 00:32:00,
2013-02-19 19:42:00,36.0,16.0,29.80,WNW,297,7.0,25.0,43,0.00,,,0.01,,2013-02-20 00:42:00,
2013-02-19 19:52:00,35.0,13.0,29.80,NW,304,11.0,32.0,40,0.00,,,0.01,,2013-02-20 00:52:00,
2013-02-19 20:02:00,35.0,11.0,29.82,WNW,284,13.0,26.0,37,0.00,,,0.01,,2013-02-20 01:02:00,
2013-02-19 20:11:00,35.0,11.0,29.82,WNW,284,13.0,26.0,37,0.00,,,0.01,,2013-02-20 01:11:00,
2013-02-19 20:21:00,34.0,12.0,29.82,West,263,8.0,24.0,39,0.00,,,0.01,,2013-02-20 01:21:00,
2013-02-19 20:32:00,34.0,12.0,29.82,West,265,8.0,22.0,39,0.00,,,0.01,,2013-02-20 01:32:00,
2013-02-19 20:42:00,34.0,12.0,29.82,West,265,8.0,22.0,39,0.00,,,0.01,,2013-02-20 01:42:00,
2013-02-19 20:52:00,33.0,11.0,29.83,WSW,257,10.0,25.0,40,0.00,,,0.01,,2013-02-20 01:52:00,
2013-02-19 21:02:00,33.0,11.0,29.82,NNW,334,4.0,17.0,40,0.00,,,0.01,,2013-02-20 02:02:00,
2013-02-19 21:11:00,33.0,11.0,29.82,NNW,334,4.0,17.0,40,0.00,,,0.01,,2013-02-20 02:11:00,
2013-02-19 21:21:00,32.0,10.0,29.84,West,275,6.0,20.0,39,0.00,,,0.01,,2013-02-20 02:21:00,
2013-02-19 21:32:00,32.0,10.0,29.83,West,271,7.0,26.0,40,0.00,,,0.01,,2013-02-20 02:32:00,
2013-02-19 21:42:00,32.0,10.0,29.83,West,271,7.0,26.0,40,0.00,,,0.01,,2013-02-20 02:42:00,
2013-02-19 21:52:00,31.0,10.0,29.84,WSW,255,13.0,29.0,41,0.00,,,0.01,,2013-02-20 02:52:00,
2013-02-19 22:02:00,31.0,11.0,29.85,WNW,288,12.0,29.0,43,0.00,,,0.01,,2013-02-20 03:02:00,
2013-02-19 22:12:00,31.0,11.0,29.85,WNW,288,12.0,29.0,43,0.00,,,0.01,,2013-02-20 03:12:00,
2013-02-19 22:22:00,30.0,11.0,29.84,WSW,242,6.0,18.0,44,0.00,,,0.01,,2013-02-20 03:22:00,
2013-02-19 22:32:00,30.0,11.0,29.83,NW,313,6.0,19.0,44,0.00,,,0.01,,2013-02-20 03:32:00,
2013-02-19 22:42:00,30.0,11.0,29.83,NW,313,6.0,19.0,44,0.00,,,0.01,,2013-02-20 03:42:00,
2013-02-19 22:52:00,29.0,10.0,29.85,WNW,301,6.0,22.0,44,0.00,,,0.01,,2013-02-20 03:52:00,
2013-02-19 23:01:00,29.0,11.0,29.84,NW,314,3.0,24.0,46,0.00,,,0.01,,2013-02-20 04:01:00,
2013-02-19 23:11:00,29.0,11.0,29.84,NW,314,3.0,24.0,46,0.00,,,0.01,,2013-02-20 04:11:00,
2013-02-19 23:21:00,29.0,11.0,29.84,NW,312,6.0,21.0,47,0.00,,,0.01,,2013-02-20 04:21:00,
2013-02-19 23:31:00,29.0,11.0,29.84,NW,312,6.0,21.0,47,0.00,,,0.01,,2013-02-20 04:31:00,
2013-02-19 23:42:00,29.0,11.0,29.84,NW,312,6.0,21.0,47,0.00,,,0.01,,2013-02-20 04:42:00,
2013-02-19 23:52:00,28.0,12.0,29.84,West,271,4.0,18.0,50,0.00,,,0.01,,2013-02-20 04:52:00,